Time,TemperatureF,DewpointF,PressureIn,WindDirection,WindDirectionDegrees,WindSpeedMPH,WindSpeedGustMPH,Humidity,HourlyPrecipIn,Conditions,Clouds,dailyrainin,SolarRadiationWatts/m^2,SoftwareType,DateUTC
2013-02-16 00:02:00,7.0,-2.0,-100.00,West,259,3.0,5.0,66,0.00,,,0.00,1.000000,,2013-02-16 06:02:00,
2013-02-16 00:32:00,7.0,-3.0,-100.00,WSW,255,5.0,7.0,64,0.00,,,0.00,1.000000,,2013-02-16 06:32:00,
2013-02-16 00:42:00,7.0,-3.0,-100.00,WSW,255,5.0,7.0,64,0.00,,,0.00,1.000000,,2013-02-16 06:42:00,
2013-02-16 00:52:00,7.0,-3.0,-100.00,WSW,255,5.0,7.0,64,0.00,,,0.00,1.000000,,2013-02-16 06:52:00,
2013-02-16 01:02:00,7.0,-3.0,-100.00,WSW,255,5.0,7.0,64,0.00,,,0.00,1.000000,,2013-02-16 07:02:00,
2013-02-16 01:32:00,7.0,-2.0,-100.00,West,261,4.0,6.0,67,0.00,,,-99.99,1.000000,,2013-02-16 07:32:00,
2013-02-16 01:42:00,7.0,-2.0,-100.00,West,261,4.0,6.0,67,0.00,,,-99.99,1.000000,,2013-02-16 07:42:00,
2013-02-16 01:53:00,7.0,-2.0,-100.00,West,261,4.0,6.0,67,0.00,,,-99.99,1.000000,,2013-02-16 07:53:00,
2013-02-16 02:01:00,7.0,-2.0,-100.00,West,261,4.0,6.0,67,0.00,,,-99.99,1.000000,,2013-02-16 08:01:00,
2013-02-16 02:32:00,8.0,0.0,-100.00,WSW,255,3.0,6.0,68,0.00,,,0.00,1.000000,,2013-02-16 08:32:00,
2013-02-16 02:42:00,8.0,0.0,-100.00,WSW,255,3.0,6.0,68,0.00,,,0.00,1.000000,,2013-02-16 08:42:00,
2013-02-16 02:52:00,8.0,0.0,-100.00,WSW,255,3.0,6.0,68,0.00,,,0.00,1.000000,,2013-02-16 08:52:00,
2013-02-16 03:01:00,8.0,0.0,-100.00,WSW,255,3.0,6.0,68,0.00,,,0.00,1.000000,,2013-02-16 09:01:00,
2013-02-16 04:32:00,7.0,-1.0,-100.00,West,260,5.0,7.0,70,-99.99,,,0.00,1.000000,,2013-02-16 10:32:00,
2013-02-16 04:42:00,7.0,-1.0,-100.00,West,260,5.0,7.0,70,-99.99,,,0.00,1.000000,,2013-02-16 10:42:00,
2013-02-16 04:52:00,7.0,-1.0,-100.00,West,260,5.0,7.0,70,-99.99,,,0.00,1.000000,,2013-02-16 10:52:00,
2013-02-16 05:02:00,7.0,-1.0,-100.00,West,260,5.0,7.0,70,-99.99,,,0.00,1.000000,,2013-02-16 11:02:00,
2013-02-16 05:32:00,6.0,-1.0,-100.00,West,265,4.0,5.0,72,0.00,,,0.00,1.000000,,2013-02-16 11:32:00,
2013-02-16 05:42:00,6.0,-1.0,-100.00,West,265,4.0,5.0,72,0.00,,,0.00,1.000000,,2013-02-16 11:42:00,
2013-02-16 05:52:00,6.0,-1.0,-100.00,West,265,4.0,5.0,72,0.00,,,0.00,1.000000,,2013-02-16 11:52:00,
2013-02-16 06:01:00,6.0,-1.0,-100.00,West,265,4.0,5.0,72,0.00,,,0.00,1.000000,,2013-02-16 12:01:00,
2013-02-16 06:32:00,6.0,-1.0,-100.00,WSW,258,5.0,6.0,72,0.00,,,0.00,1.000000,,2013-02-16 12:32:00,
2013-02-16 06:42:00,6.0,-1.0,-100.00,WSW,258,5.0,6.0,72,0.00,,,0.00,1.000000,,2013-02-16 12:42:00,
2013-02-16 06:52:00,6.0,-1.0,-100.00,WSW,258,5.0,6.0,72,0.00,,,0.00,1.000000,,2013-02-16 12:52:00,
2013-02-16 07:02:00,6.0,-1.0,-100.00,WSW,258,5.0,6.0,72,0.00,,,0.00,1.000000,,2013-02-16 13:02:00,
2013-02-16 08:32:00,0.0,-6.0,-100.00,NNW,332,1.0,3.0,74,-99.99,,,0.00,46.000000,,2013-02-16 14:32:00,
2013-02-16 08:42:00,0.0,-6.0,-100.00,NNW,332,1.0,3.0,74,-99.99,,,0.00,46.000000,,2013-02-16 14:42:00,
2013-02-16 08:52:00,0.0,-6.0,-100.00,NNW,332,1.0,3.0,74,-99.99,,,0.00,46.000000,,2013-02-16 14:52:00,
2013-02-16 09:01:00,0.0,-6.0,-100.00,NNW,332,1.0,3.0,74,-99.99,,,0.00,46.000000,,2013-02-16 15:01:00,
2013-02-16 09:32:00,14.0,0.0,-100.00,SW,232,2.0,4.0,54,0.00,,,0.00,205.000000,,2013-02-16 15:32:00,
2013-02-16 10:32:00,12.0,0.0,-100.00,NW,320,5.0,7.0,57,-99.99,,,0.00,361.000000,,2013-02-16 16:32:00,
2013-02-16 10:42:00,12.0,0.0,-100.00,NW,320,5.0,7.0,57,-99.99,,,0.00,361.000000,,2013-02-16 16:42:00,
2013-02-16 10:52:00,12.0,0.0,-100.00,NW,320,5.0,7.0,57,-99.99,,,0.00,361.000000,,2013-02-16 16:52:00,
2013-02-16 11:01:00,12.0,0.0,-100.00,NW,320,5.0,7.0,57,-99.99,,,0.00,361.000000,,2013-02-16 17:01:00,
2013-02-16 11:32:00,22.0,2.0,-100.00,South,191,2.0,6.0,42,0.00,,,0.00,492.000000,,2013-02-16 17:32:00,
2013-02-16 12:33:00,19.0,1.0,-100.00,WSW,249,3.0,5.0,45,-99.99,,,0.00,572.000000,,2013-02-16 18:33:00,
2013-02-16 12:42:00,19.0,1.0,-100.00,WSW,249,3.0,5.0,45,-99.99,,,0.00,572.000000,,2013-02-16 18:42:00,
2013-02-16 12:52:00,19.0,1.0,-100.00,WSW,249,3.0,5.0,45,-99.99,,,0.00,572.000000,,2013-02-16 18:52:00,
2013-02-16 13:02:00,19.0,1.0,-100.00,WSW,249,3.0,5.0,45,-99.99,,,0.00,572.000000,,2013-02-16 19:02:00,
2013-02-16 13:32:00,21.0,2.0,-100.00,South,179,4.0,7.0,42,0.00,,,0.00,595.000000,,2013-02-16 19:32:00,
2013-02-16 13:42:00,21.0,2.0,-100.00,South,179,4.0,7.0,42,0.00,,,0.00,595.000000,,2013-02-16 19:42:00,
2013-02-16 13:52:00,21.0,2.0,-100.00,South,179,4.0,7.0,42,0.00,,,0.00,595.000000,,2013-02-16 19:52:00,
2013-02-16 14:32:00,21.0,2.0,-100.00,SSW,193,4.0,6.0,43,0.00,,,0.00,559.000000,,2013-02-16 20:32:00,
2013-02-16 14:42:00,21.0,2.0,-100.00,SSW,193,4.0,6.0,43,0.00,,,0.00,559.000000,,2013-02-16 20:42:00,
2013-02-16 14:52:00,21.0,2.0,-100.00,SSW,193,4.0,6.0,43,0.00,,,0.00,559.000000,,2013-02-16 20:52:00,
2013-02-16 15:02:00,21.0,2.0,-100.00,SSW,193,4.0,6.0,43,0.00,,,0.00,559.000000,,2013-02-16 21:02:00,
2013-02-16 15:32:00,22.0,1.0,-100.00,South,180,3.0,6.0,40,0.00,,,0.00,467.000000,,2013-02-16 21:32:00,
2013-02-16 15:42:00,22.0,1.0,-100.00,South,180,3.0,6.0,40,0.00,,,0.00,467.000000,,2013-02-16 21:42:00,
2013-02-16 15:52:00,22.0,1.0,-100.00,South,180,3.0,6.0,40,0.00,,,0.00,467.000000,,2013-02-16 21:52:00,
2013-02-16 16:01:00,22.0,1.0,-100.00,South,180,3.0,6.0,40,0.00,,,0.00,467.000000,,2013-02-16 22:01:00,
2013-02-16 16:32:00,20.0,1.0,-100.00,SSE,166,4.0,6.0,43,0.00,,,0.00,328.000000,,2013-02-16 22:32:00,
2013-02-16 16:42:00,20.0,1.0,-100.00,SSE,166,4.0,6.0,43,0.00,,,0.00,328.000000,,2013-02-16 22:42:00,
2013-02-16 16:52:00,20.0,1.0,-100.00,SSE,166,4.0,6.0,43,0.00,,,0.00,328.000000,,2013-02-16 22:52:00,
2013-02-16 17:02:00,20.0,1.0,-100.00,SSE,166,4.0,6.0,43,0.00,,,0.00,328.000000,,2013-02-16 23:02:00,
2013-02-16 17:32:00,17.0,0.0,-100.00,SSE,164,4.0,6.0,47,0.00,,,0.00,164.000000,,2013-02-16 23:32:00,
2013-02-16 17:42:00,17.0,0.0,-100.00,SSE,164,4.0,6.0,47,0.00,,,0.00,164.000000,,2013-02-16 23:42:00,
2013-02-16 17:52:00,17.0,0.0,-100.00,SSE,164,4.0,6.0,47,0.00,,,0.00,164.000000,,2013-02-16 23:52:00,
2013-02-16 18:02:00,17.0,0.0,-100.00,SSE,164,4.0,6.0,47,0.00,,,0.00,164.000000,,2013-02-17 00:02:00,
2013-02-16 18:32:00,11.0,-2.0,-100.00,South,179,3.0,6.0,56,0.00,,,0.00,19.000000,,2013-02-17 00:32:00,
2013-02-16 18:42:00,11.0,-2.0,-100.00,South,179,3.0,6.0,56,0.00,,,0.00,19.000000,,2013-02-17 00:42:00,
2013-02-16 18:52:00,11.0,-2.0,-100.00,South,179,3.0,6.0,56,0.00,,,0.00,19.000000,,2013-02-17 00:52:00,
2013-02-16 19:01:00,11.0,-2.0,-100.00,South,179,3.0,6.0,56,0.00,,,0.00,19.000000,,2013-02-17 01:01:00,
2013-02-16 20:32:00,-3.0,-8.0,-100.00,East,80,1.0,2.0,78,-99.99,,,0.00,1.000000,,2013-02-17 02:32:00,
2013-02-16 20:42:00,-3.0,-8.0,-100.00,East,80,1.0,2.0,78,-99.99,,,0.00,1.000000,,2013-02-17 02:42:00,
2013-02-16 20:52:00,-3.0,-8.0,-100.00,East,80,1.0,2.0,78,-99.99,,,0.00,1.000000,,2013-02-17 02:52:00,
2013-02-16 21:02:00,-3.0,-8.0,-100.00,East,80,1.0,2.0,78,-99.99,,,0.00,1.000000,,2013-02-17 03:02:00,
2013-02-16 21:32:00,-6.0,-11.0,-100.00,NNW,328,2.0,2.0,78,0.00,,,0.00,1.000000,,2013-02-17 03:32:00,
2013-02-16 21:42:00,-6.0,-11.0,-100.00,NNW,328,2.0,2.0,78,0.00,,,0.00,1.000000,,2013-02-17 03:42:00,
2013-02-16 21:52:00,-6.0,-11.0,-100.00,NNW,328,2.0,2.0,78,0.00,,,0.00,1.000000,,2013-02-17 03:52:00,
2013-02-16 22:01:00,-6.0,-11.0,-100.00,NNW,328,2.0,2.0,78,0.00,,,0.00,1.000000,,2013-02-17 04:01:00,
2013-02-16 22:32:00,-8.0,-14.0,-100.00,East,79,1.0,2.0,76,0.00,,,0.00,1.000000,,2013-02-17 04:32:00,
2013-02-16 22:42:00,-8.0,-14.0,-100.00,East,79,1.0,2.0,76,0.00,,,0.00,1.000000,,2013-02-17 04:42:00,
2013-02-16 22:52:00,-8.0,-14.0,-100.00,East,79,1.0,2.0,76,0.00,,,0.00,1.000000,,2013-02-17 04:52:00,
2013-02-16 23:02:00,-8.0,-14.0,-100.00,East,79,1.0,2.0,76,0.00,,,0.00,1.000000,,2013-02-17 05:02:00,
2013-02-16 23:33:00,-10.0,-16.0,-100.00,ENE,71,2.0,4.0,75,0.00,,,0.00,1.000000,,2013-02-17 05:33:00,
2013-02-16 23:42:00,-10.0,-16.0,-100.00,ENE,71,2.0,4.0,75,0.00,,,0.00,1.000000,,2013-02-17 05:42:00,
2013-02-16 23:52:00,-10.0,-16.0,-100.00,ENE,71,2.0,4.0,75,0.00,,,0.00,1.000000,,2013-02-17 05:52:00,